Location: Vista Encantada
(35.1109°N, 106.5681°W)
Time: 03:52:23
(UTC+00:00)

X-37B - Pass Details

Date: 23 September 2021
Orbit: 385 x 389 km, 45.0° (Epoch: 13 October)

Event Time Altitude Azimuth Distance (km) Brightness Sun altitude
Exits shadow 11:41:24 26° 313° (NW) 797 1.8 -15.8°
Maximum altitude 11:42:05 29° 338° (NNW) 744 1.9 -15.7°
Drops below altitude 10° 11:44:55 10° 41° (NE) 1,414 4.2 -15.1°
Sets 11:47:09 0° 53° (NE) 2,271 5.7 -14.7°
